Location: Cahas Mountain Overlook
(37.0833°N, 80.1000°W)
Time: 01:44:29
(UTC-05:00)

A-11 Canister half - Pass Details

Date: 01 December 2023
Orbit: 1512 x 1687 km, 47.2° (Epoch: 01 March)

Event Time Altitude Azimuth Distance (km) Brightness Sun altitude
Exits shadow 04:33:17 43° 332° (NNW) 2,200 9.5 -31.7°
Maximum altitude 04:35:14 47° 1° (N) 2,100 9.5 -31.3°
Drops below altitude 10° 04:44:56 10° 73° (ENE) 3,947 11.9 -29.4°
Sets 04:48:21 0° 79° (E) 4,941 12.8 -28.7°
